| time (UTC) | temp C | wind direction | speed KPH | gust KPH | rain 1hr cm | rain 24hr cm | rain mn cm | humidity % | barometer mb |
| 20260505092802 | 15 | 221 | 0.0 | 0.0 | 0.00 | 0.00 | 0.00 | 66 | 1011.8 |
| 20260505090803 | 16 | 221 | 0.0 | 0.0 | 0.00 | 0.00 | 0.00 | 66 | 1011.8 |
| 20260505085304 | 16 | 221 | 0.0 | 0.0 | 0.00 | 0.00 | 0.00 | 65 | 1011.8 |
| 20260505083803 | 16 | 221 | 0.0 | 0.0 | 0.00 | 0.00 | 0.00 | 65 | 1011.7 |
| 20260505083302 | 16 | 221 | 0.0 | 0.0 | 0.00 | 0.00 | 0.00 | 64 | 1011.6 |
| 20260505082304 | 16 | 221 | 0.0 | 0.0 | 0.00 | 0.00 | 0.00 | 64 | 1011.5 |
| 20260505080803 | 16 | 221 | 0.0 | 0.0 | 0.00 | 0.00 | 0.00 | 63 | 1011.4 |
| 20260505080303 | 16 | 221 | 0.0 | 0.0 | 0.00 | 0.00 | 0.00 | 63 | 1011.4 |
| 20260505073803 | 16 | 221 | 0.0 | 0.0 | 0.00 | 0.00 | 0.00 | 62 | 1011.5 |
| 20260505073303 | 16 | 221 | 0.0 | 0.0 | 0.00 | 0.00 | 0.00 | 62 | 1011.5 |
| 20260505072803 | 16 | 221 | 0.0 | 0.0 | 0.00 | 0.00 | 0.00 | 62 | 1011.7 |
| 20260505071303 | 17 | 221 | 0.0 | 0.0 | 0.00 | 0.00 | 0.00 | 61 | 1011.8 |
| 20260505070803 | 17 | 221 | 0.0 | 0.0 | 0.00 | 0.00 | 0.00 | 61 | 1011.9 |
| 20260505065304 | 17 | 221 | 0.0 | 0.0 | 0.00 | 0.00 | 0.00 | 60 | 1012.1 |
| 20260505061803 | 17 | 221 | 0.0 | 0.0 | 0.00 | 0.00 | 0.00 | 59 | 1012.3 |
| 20260505061302 | 17 | 221 | 0.0 | 0.0 | 0.00 | 0.00 | 0.00 | 59 | 1012.2 |
| 20260505055304 | 18 | 221 | 0.0 | 0.0 | 0.00 | 0.00 | 0.00 | 58 | 1012.4 |
| 20260505054803 | 18 | 221 | 0.0 | 0.0 | 0.00 | 0.00 | 0.00 | 58 | 1012.4 |
| 20260505054303 | 18 | 221 | 0.0 | 0.0 | 0.00 | 0.00 | 0.00 | 58 | 1012.4 |
| 20260505053803 | 18 | 221 | 0.0 | 0.0 | 0.00 | 0.00 | 0.00 | 57 | 1012.3 |
| 20260505052803 | 18 | 221 | 0.0 | 0.0 | 0.00 | 0.00 | 0.00 | 57 | 1012.2 |
| 20260505052304 | 18 | 221 | 0.0 | 0.0 | 0.00 | 0.00 | 0.00 | 57 | 1012.2 |
| 20260505051803 | 18 | 221 | 0.0 | 0.0 | 0.00 | 0.00 | 0.00 | 57 | 1012.2 |
| 20260505040803 | 19 | 221 | 0.0 | 0.0 | 0.00 | 0.00 | 0.00 | 54 | 1011.8 |
| 20260505035304 | 19 | 221 | 0.0 | 0.0 | 0.00 | 0.00 | 0.00 | 54 | 1011.8 |
| 20260505034803 | 19 | 221 | 0.0 | 0.0 | 0.00 | 0.00 | 0.00 | 54 | 1011.8 |
| 20260505032803 | 20 | 221 | 0.0 | 1.6 | 0.00 | 0.00 | 0.00 | 53 | 1011.8 |
| 20260505032304 | 20 | 221 | 0.0 | 1.6 | 0.00 | 0.00 | 0.00 | 53 | 1011.8 |
| 20260505031803 | 20 | 41 | 0.0 | 0.0 | 0.00 | 0.00 | 0.00 | 54 | 1011.8 |
| 20260505030303 | 20 | 41 | 0.0 | 1.6 | 0.00 | 0.00 | 0.00 | 53 | 1011.9 |
| 20260505025803 | 20 | 41 | 0.0 | 1.6 | 0.00 | 0.00 | 0.00 | 53 | 1011.9 |
| 20260505025304 | 20 | 245 | 0.0 | 0.0 | 0.00 | 0.00 | 0.00 | 53 | 1011.9 |
| 20260505024303 | 20 | 245 | 0.0 | 1.6 | 0.00 | 0.00 | 0.00 | 54 | 1011.8 |
| 20260505022304 | 20 | 300 | 0.0 | 0.0 | 0.00 | 0.00 | 0.00 | 53 | 1011.8 |
| 20260505021803 | 20 | 300 | 0.0 | 0.0 | 0.00 | 0.00 | 0.00 | 52 | 1011.8 |
| 20260505021303 | 20 | 300 | 0.0 | 0.0 | 0.00 | 0.00 | 0.00 | 52 | 1011.8 |
| 20260505020803 | 21 | 300 | 0.0 | 0.0 | 0.00 | 0.00 | 0.00 | 52 | 1011.8 |
| 20260505020303 | 21 | 300 | 0.0 | 0.0 | 0.00 | 0.00 | 0.00 | 52 | 1011.7 |
| 20260505015803 | 21 | 300 | 0.0 | 0.0 | 0.00 | 0.00 | 0.00 | 51 | 1011.6 |
| 20260505015304 | 21 | 300 | 0.0 | 0.0 | 0.00 | 0.00 | 0.00 | 51 | 1011.7 |
| 20260505014303 | 21 | 300 | 0.0 | 0.0 | 0.00 | 0.00 | 0.00 | 51 | 1011.6 |
| 20260505012803 | 22 | 300 | 0.0 | 0.0 | 0.00 | 0.00 | 0.00 | 51 | 1011.6 |
| 20260505012304 | 22 | 300 | 0.0 | 0.0 | 0.00 | 0.00 | 0.00 | 50 | 1011.6 |
| 20260505010803 | 22 | 300 | 0.0 | 0.0 | 0.00 | 0.00 | 0.00 | 49 | 1011.6 |
| 20260505004303 | 23 | 300 | 0.0 | 0.0 | 0.00 | 0.00 | 0.00 | 47 | 1011.5 |
| 20260505002803 | 23 | 300 | 0.0 | 0.0 | 0.00 | 0.00 | 0.00 | 45 | 1011.4 |
| 20260505002304 | 23 | 300 | 0.0 | 0.0 | 0.00 | 0.00 | 0.00 | 45 | 1011.4 |
| 20260505001803 | 24 | 300 | 0.0 | 1.6 | 0.00 | 0.00 | 0.00 | 44 | 1011.3 |
| 20260505001303 | 24 | 300 | 0.0 | 1.6 | 0.00 | 0.00 | 0.00 | 44 | 1011.3 |
| 20260505000803 | 24 | 139 | 0.0 | 1.6 | 0.00 | 0.00 | 0.00 | 43 | 1011.4 |
| 20260504235304 | 24 | 138 | 0.0 | 0.0 | 0.00 | 0.00 | 0.00 | 42 | 1011.4 |
| 20260504234802 | 25 | 138 | 0.0 | 1.6 | 0.00 | 0.00 | 0.00 | 41 | 1011.4 |
| 20260504232803 | 25 | 284 | 0.0 | 4.8 | 0.00 | 0.00 | 0.00 | 40 | 1011.5 |
| 20260504230803 | 25 | 26 | 0.0 | 4.8 | 0.00 | 0.00 | 0.00 | 42 | 1011.4 |
| 20260504224803 | 25 | 338 | 0.0 | 1.6 | 0.00 | 0.00 | 0.00 | 41 | 1011.4 |
| 20260504224303 | 26 | 62 | 0.0 | 3.2 | 0.00 | 0.00 | 0.00 | 40 | 1011.5 |
| 20260504223803 | 26 | 20 | 0.0 | 8.0 | 0.00 | 0.00 | 0.00 | 40 | 1011.6 |
| 20260504222305 | 26 | 350 | 0.0 | 11.3 | 0.00 | 0.00 | 0.00 | 38 | 1011.5 |
| 20260504215803 | 27 | 224 | 0.0 | 1.6 | 0.00 | 0.00 | 0.00 | 40 | 1011.4 |
| 20260504214803 | 27 | 118 | 0.0 | 4.8 | 0.00 | 0.00 | 0.00 | 41 | 1011.4 |
| 20260504213803 | 27 | 35 | 0.0 | 9.7 | 0.00 | 0.00 | 0.00 | 38 | 1011.3 |
| 20260504213303 | 27 | 345 | 0.0 | 9.7 | 0.00 | 0.00 | 0.00 | 39 | 1011.4 |
| 20260504212803 | 27 | 34 | 0.0 | 4.8 | 0.00 | 0.00 | 0.00 | 38 | 1011.3 |
| 20260504211804 | 27 | 191 | 0.0 | 8.0 | 0.00 | 0.00 | 0.00 | 37 | 1011.4 |
| 20260504210803 | 27 | 315 | 0.0 | 9.7 | 0.00 | 0.00 | 0.00 | 36 | 1011.4 |
| 20260504205803 | 27 | 232 | 0.0 | 9.7 | 0.00 | 0.00 | 0.00 | 40 | 1011.5 |
| 20260504205304 | 27 | 11 | 0.0 | 9.7 | 0.00 | 0.00 | 0.00 | 39 | 1011.6 |
| 20260504204803 | 27 | 76 | 1.6 | 9.7 | 0.00 | 0.00 | 0.00 | 38 | 1011.6 |
| 20260504204303 | 27 | 4 | 0.0 | 19.3 | 0.00 | 0.00 | 0.00 | 38 | 1011.7 |
| 20260504203802 | 27 | 45 | 0.0 | 19.3 | 0.00 | 0.00 | 0.00 | 39 | 1011.7 |
| 20260504202304 | 27 | 354 | 1.6 | 12.9 | 0.00 | 0.00 | 0.00 | 38 | 1011.8 |
| 20260504200803 | 28 | 315 | 0.0 | 9.7 | 0.00 | 0.00 | 0.00 | 39 | 1012.0 |
| 20260504200303 | 27 | 37 | 0.0 | 14.5 | 0.00 | 0.00 | 0.00 | 41 | 1012.0 |
| 20260504192803 | 27 | 257 | 0.0 | 12.9 | 0.00 | 0.00 | 0.00 | 40 | 1012.7 |
| 20260504191303 | 27 | 138 | 0.0 | 9.7 | 0.00 | 0.00 | 0.00 | 41 | 1012.8 |
| 20260504190803 | 27 | 138 | 0.0 | 11.3 | 0.00 | 0.00 | 0.00 | 41 | 1012.9 |
| 20260504185802 | 27 | 14 | 0.0 | 16.1 | 0.00 | 0.00 | 0.00 | 39 | 1012.9 |
| 20260504184803 | 27 | 177 | 0.0 | 9.7 | 0.00 | 0.00 | 0.00 | 42 | 1013.1 |
| 20260504183303 | 27 | 10 | 1.6 | 16.1 | 0.00 | 0.00 | 0.00 | 41 | 1013.3 |
| 20260504181303 | 27 | 352 | 0.0 | 4.8 | 0.00 | 0.00 | 0.00 | 43 | 1013.3 |
| 20260504175304 | 26 | 341 | 0.0 | 12.9 | 0.00 | 0.00 | 0.00 | 45 | 1013.7 |
| 20260504173803 | 26 | 77 | 0.0 | 4.8 | 0.00 | 0.00 | 0.00 | 47 | 1013.7 |
| 20260504172304 | 25 | 351 | 0.0 | 1.6 | 0.00 | 0.00 | 0.00 | 45 | 1013.9 |
| 20260504171303 | 25 | 317 | 0.0 | 4.8 | 0.00 | 0.00 | 0.00 | 46 | 1014.0 |
| 20260504160303 | 24 | 21 | 0.0 | 14.5 | 0.00 | 0.00 | 0.00 | 48 | 1014.9 |
| 20260504150802 | 21 | 315 | 0.0 | 4.8 | 0.00 | 0.00 | 0.00 | 51 | 1015.3 |
| 20260504120304 | 11 | 268 | 0.0 | 0.0 | 0.00 | 0.00 | 0.00 | 73 | 1015.7 |
| 20260504110303 | 10 | 268 | 0.0 | 0.0 | 0.00 | 0.00 | 0.00 | 75 | 1015.1 |